Location: Champignolles
(47.0543°N, 4.5663°E)
Time: 08:08:29
(UTC+00:00)

ISS - Pass Details

Date: 03 December 2021
Orbit: 413 x 422 km, 51.6° (Epoch: 27 January)

Event Time Altitude Azimuth Distance (km) Brightness Sun altitude
Rises 17:32:52 0° 295° (WNW) 2,388 0.9 -16.2°
Reaches altitude 10° 17:34:59 10° 297° (WNW) 1,518 -0.2 -16.6°
Maximum altitude 17:38:24 71° 22° (NNE) 453 -3.8 -17.2°
Enters shadow 17:39:08 50° 88° (E) 550 -3.6 -17.3°
